Time,TemperatureF,DewpointF,PressureIn,WindDirection,WindDirectionDegrees,WindSpeedMPH,WindSpeedGustMPH,Humidity,HourlyPrecipIn,Conditions,Clouds,dailyrainin,SolarRadiationWatts/m^2,SoftwareType,DateUTC
2013-05-24 00:01:00,65.7,63.9,29.72,South,190,0.0,2.3,94,0.01,RA,,0.00,0.0,WeatherDisplay:10.37,2013-05-24 04:01:00,
2013-05-24 00:02:00,65.7,63.9,29.72,South,190,1.3,3.0,94,0.01,RA,,0.00,0.0,WeatherDisplay:10.37,2013-05-24 04:02:00,
2013-05-24 00:07:00,65.7,63.9,29.72,SSW,192,1.0,2.3,94,0.01,RA,,0.00,0.0,WeatherDisplay:10.37,2013-05-24 04:07:00,
2013-05-24 00:12:00,65.7,63.9,29.71,South,190,0.1,1.2,94,0.02,RA,,0.01,0.0,WeatherDisplay:10.37,2013-05-24 04:12:00,
2013-05-24 00:17:00,65.7,63.9,29.71,South,190,0.7,4.6,94,0.02,RA,,0.01,0.0,WeatherDisplay:10.37,2013-05-24 04:17:00,
2013-05-24 00:22:00,65.6,63.8,29.71,South,190,0.7,2.3,94,0.02,CLR,,0.01,0.0,WeatherDisplay:10.37,2013-05-24 04:22:00,
2013-05-24 00:27:00,65.5,63.7,29.71,SSW,203,0.0,3.5,94,0.02,CLR,,0.01,0.0,WeatherDisplay:10.37,2013-05-24 04:27:00,
2013-05-24 00:32:00,65.4,63.6,29.71,SSW,201,0.0,0.0,94,0.02,CLR,,0.01,0.0,WeatherDisplay:10.37,2013-05-24 04:32:00,
2013-05-24 00:37:00,65.4,63.9,29.71,SSW,201,0.0,1.2,95,0.02,CLR,,0.01,0.0,WeatherDisplay:10.37,2013-05-24 04:37:00,
2013-05-24 00:42:00,65.4,63.9,29.71,SSW,201,0.1,1.2,95,0.02,CLR,,0.01,0.0,WeatherDisplay:10.37,2013-05-24 04:42:00,
2013-05-24 00:47:00,65.4,63.9,29.71,SSW,196,0.1,3.5,95,0.01,CLR,,0.01,0.0,WeatherDisplay:10.37,2013-05-24 04:47:00,
2013-05-24 00:52:00,65.3,63.8,29.71,South,190,0.8,3.5,95,0.03,RA,,0.03,0.0,WeatherDisplay:10.37,2013-05-24 04:52:00,
2013-05-24 00:57:00,65.3,63.8,29.70,South,190,1.1,3.5,95,0.04,RA,,0.04,0.0,WeatherDisplay:10.37,2013-05-24 04:57:00,
2013-05-24 01:02:00,65.3,63.8,29.71,South,190,0.0,1.2,95,0.05,RA,,0.05,0.0,WeatherDisplay:10.37,2013-05-24 05:02:00,
2013-05-24 01:07:00,65.2,63.7,29.70,South,190,0.1,2.0,95,0.06,RA,,0.06,0.0,WeatherDisplay:10.37,2013-05-24 05:07:00,
2013-05-24 01:12:00,65.2,63.7,29.70,South,190,1.5,1.5,95,0.05,RA,,0.07,0.0,WeatherDisplay:10.37,2013-05-24 05:12:00,
2013-05-24 01:17:00,65.2,63.7,29.70,South,190,1.5,1.5,95,0.06,RA,,0.07,0.0,WeatherDisplay:10.37,2013-05-24 05:17:00,
2013-05-24 01:22:00,65.2,64.0,29.70,South,190,0.0,0.0,96,0.06,RA,,0.07,0.0,WeatherDisplay:10.37,2013-05-24 05:22:00,
2013-05-24 01:27:00,65.1,63.9,29.70,South,190,0.6,2.3,96,0.06,CLR,,0.07,0.0,WeatherDisplay:10.37,2013-05-24 05:27:00,
2013-05-24 01:32:00,65.0,63.8,29.69,South,190,0.0,0.0,96,0.07,RA,,0.08,0.0,WeatherDisplay:10.37,2013-05-24 05:32:00,
2013-05-24 01:37:00,65.0,63.8,29.69,South,190,0.0,0.0,96,0.07,RA,,0.08,0.0,WeatherDisplay:10.37,2013-05-24 05:37:00,
2013-05-24 01:42:00,64.9,63.7,29.70,South,190,0.0,0.0,96,0.07,CLR,,0.08,0.0,WeatherDisplay:10.37,2013-05-24 05:42:00,
2013-05-24 01:47:00,64.9,63.7,29.70,South,190,0.0,0.0,96,0.07,CLR,,0.08,0.0,WeatherDisplay:10.37,2013-05-24 05:47:00,
2013-05-24 01:52:00,64.8,63.6,29.70,South,190,0.2,1.2,96,0.05,CLR,,0.08,0.0,WeatherDisplay:10.37,2013-05-24 05:52:00,
2013-05-24 01:57:00,64.8,63.6,29.70,South,190,0.0,0.0,96,0.04,CLR,,0.08,0.0,WeatherDisplay:10.37,2013-05-24 05:57:00,
2013-05-24 02:02:00,64.7,63.5,29.69,South,190,0.0,0.0,96,0.03,CLR,,0.08,0.0,WeatherDisplay:10.37,2013-05-24 06:02:00,
2013-05-24 02:07:00,64.7,63.5,29.69,South,190,0.0,0.0,96,0.03,RA,,0.09,0.0,WeatherDisplay:10.37,2013-05-24 06:07:00,
2013-05-24 02:12:00,64.6,63.4,29.69,South,190,0.2,1.2,96,0.02,RA,,0.09,0.0,WeatherDisplay:10.37,2013-05-24 06:12:00,
2013-05-24 02:17:00,64.6,63.4,29.68,South,190,0.0,0.0,96,0.02,CLR,,0.09,0.0,WeatherDisplay:10.37,2013-05-24 06:17:00,
2013-05-24 02:22:00,64.5,63.3,29.69,South,190,0.0,0.0,96,0.02,CLR,,0.09,0.0,WeatherDisplay:10.37,2013-05-24 06:22:00,
2013-05-24 02:27:00,64.4,63.2,29.68,South,190,0.0,0.0,96,0.02,CLR,,0.09,0.0,WeatherDisplay:10.37,2013-05-24 06:27:00,
2013-05-24 02:32:00,64.3,63.1,29.68,South,190,0.0,0.0,96,0.01,CLR,,0.09,0.0,WeatherDisplay:10.37,2013-05-24 06:32:00,
2013-05-24 02:37:00,64.2,63.0,29.68,South,190,0.0,0.0,96,0.01,CLR,,0.09,0.0,WeatherDisplay:10.37,2013-05-24 06:37:00,
2013-05-24 02:42:00,64.1,62.9,29.68,South,190,1.9,3.5,96,0.02,RA,,0.10,0.0,WeatherDisplay:10.37,2013-05-24 06:42:00,
2013-05-24 02:47:00,64.1,62.9,29.68,South,190,0.6,2.3,96,0.02,RA,,0.10,0.0,WeatherDisplay:10.37,2013-05-24 06:47:00,
2013-05-24 02:52:00,64.0,62.8,29.67,South,190,0.4,2.3,96,0.03,RA,,0.11,0.0,WeatherDisplay:10.37,2013-05-24 06:52:00,
2013-05-24 02:57:00,64.0,62.8,29.67,South,190,0.0,0.0,96,0.03,RA,,0.11,0.0,WeatherDisplay:10.37,2013-05-24 06:57:00,
2013-05-24 03:02:00,63.9,62.7,29.67,South,190,0.0,0.0,96,0.04,RA,,0.12,0.0,WeatherDisplay:10.37,2013-05-24 07:02:00,
2013-05-24 03:07:00,63.9,62.7,29.68,South,190,0.0,0.0,96,0.04,RA,,0.13,0.0,WeatherDisplay:10.37,2013-05-24 07:07:00,
2013-05-24 03:12:00,63.9,62.7,29.67,South,190,0.0,0.0,96,0.05,RA,,0.14,0.0,WeatherDisplay:10.37,2013-05-24 07:12:00,
2013-05-24 03:17:00,63.9,62.7,29.67,South,190,0.0,0.0,96,0.06,RA,,0.15,0.0,WeatherDisplay:10.37,2013-05-24 07:17:00,
2013-05-24 03:22:00,63.8,62.6,29.67,South,190,0.0,0.0,96,0.06,RA,,0.15,0.0,WeatherDisplay:10.37,2013-05-24 07:22:00,
2013-05-24 03:27:00,63.8,62.6,29.67,South,190,0.0,0.0,96,0.07,RA,,0.16,0.0,WeatherDisplay:10.37,2013-05-24 07:27:00,
2013-05-24 03:32:00,63.8,62.6,29.66,South,190,0.0,0.0,96,0.08,RA,,0.17,0.0,WeatherDisplay:10.37,2013-05-24 07:32:00,
2013-05-24 03:37:00,63.8,62.6,29.66,South,190,0.0,0.0,96,0.09,RA,,0.18,0.0,WeatherDisplay:10.37,2013-05-24 07:37:00,
2013-05-24 03:42:00,63.7,62.5,29.67,South,190,0.0,0.0,96,0.08,RA,,0.18,0.0,WeatherDisplay:10.37,2013-05-24 07:42:00,
2013-05-24 03:47:00,63.7,62.5,29.66,South,190,0.0,1.0,96,0.08,,,0.18,0.0,WeatherDisplay:10.37,2013-05-24 07:47:00,
2013-05-24 03:52:00,63.5,62.3,29.66,South,190,0.0,0.0,96,0.07,CLR,,0.18,0.0,WeatherDisplay:10.37,2013-05-24 07:52:00,
2013-05-24 03:57:00,63.3,62.1,29.66,South,190,0.1,1.2,96,0.07,CLR,,0.19,0.0,WeatherDisplay:10.37,2013-05-24 07:57:00,
2013-05-24 04:02:00,63.2,62.0,29.65,South,190,0.0,0.0,96,0.07,RA,,0.19,0.0,WeatherDisplay:10.37,2013-05-24 08:02:00,
2013-05-24 04:07:00,63.1,61.9,29.65,South,190,0.3,2.0,96,0.06,RA,,0.19,0.0,WeatherDisplay:10.37,2013-05-24 08:07:00,
2013-05-24 04:12:00,63.0,61.8,29.64,SSE,157,0.5,2.3,96,0.05,CLR,,0.19,0.0,WeatherDisplay:10.37,2013-05-24 08:12:00,
2013-05-24 04:17:00,62.9,61.7,29.65,SSE,157,0.0,0.0,96,0.04,CLR,,0.19,0.0,WeatherDisplay:10.37,2013-05-24 08:17:00,
2013-05-24 04:22:00,62.8,61.6,29.65,SSE,157,1.5,2.3,96,0.04,CLR,,0.19,0.0,WeatherDisplay:10.37,2013-05-24 08:22:00,
2013-05-24 04:27:00,62.8,61.6,29.66,SSE,157,1.7,2.3,96,0.03,CLR,,0.19,0.0,WeatherDisplay:10.37,2013-05-24 08:27:00,
2013-05-24 04:32:00,62.7,61.5,29.66,SSE,157,1.5,2.3,96,0.02,CLR,,0.19,0.0,WeatherDisplay:10.37,2013-05-24 08:32:00,
2013-05-24 04:37:00,62.6,61.4,29.66,WNW,282,2.7,3.5,96,0.01,CLR,,0.19,0.0,WeatherDisplay:10.37,2013-05-24 08:37:00,
2013-05-24 04:42:00,62.5,61.3,29.66,WNW,282,0.4,2.3,96,0.01,CLR,,0.19,0.0,WeatherDisplay:10.37,2013-05-24 08:42:00,
2013-05-24 04:47:00,62.4,61.2,29.66,WNW,282,2.3,3.5,96,0.01,CLR,,0.19,0.0,WeatherDisplay:10.37,2013-05-24 08:47:00,
2013-05-24 04:52:00,62.2,61.0,29.66,WNW,282,1.5,3.5,96,0.01,CLR,,0.19,0.0,WeatherDisplay:10.37,2013-05-24 08:52:00,
2013-05-24 04:58:00,62.1,60.9,29.66,WNW,282,2.6,3.5,96,0.01,CLR,,0.19,0.0,WeatherDisplay:10.37,2013-05-24 08:58:00,
2013-05-24 05:03:00,61.8,60.6,29.67,WNW,282,0.0,2.3,96,0.00,CLR,,0.19,0.0,WeatherDisplay:10.37,2013-05-24 09:03:00,
2013-05-24 05:08:00,61.6,60.4,29.67,WNW,282,0.0,0.0,96,0.00,CLR,,0.19,0.0,WeatherDisplay:10.37,2013-05-24 09:08:00,
2013-05-24 05:13:00,61.5,60.3,29.67,WNW,282,0.0,0.0,96,0.00,CLR,,0.19,0.0,WeatherDisplay:10.37,2013-05-24 09:13:00,
2013-05-24 05:18:00,61.5,60.3,29.67,WNW,282,0.0,0.0,96,0.00,CLR,,0.19,0.0,WeatherDisplay:10.37,2013-05-24 09:18:00,
2013-05-24 05:23:00,61.5,60.3,29.68,WNW,282,0.0,0.0,96,0.00,CLR,,0.19,0.0,WeatherDisplay:10.37,2013-05-24 09:23:00,
2013-05-24 05:28:00,61.5,60.3,29.68,WNW,282,0.0,0.0,96,0.00,CLR,,0.19,0.0,WeatherDisplay:10.37,2013-05-24 09:28:00,
2013-05-24 05:33:00,61.5,60.3,29.68,WNW,282,0.0,0.0,96,0.00,CLR,,0.19,0.0,WeatherDisplay:10.37,2013-05-24 09:33:00,
2013-05-24 05:38:00,61.5,60.3,29.68,WNW,282,0.0,0.0,96,0.00,CLR,,0.19,0.0,WeatherDisplay:10.37,2013-05-24 09:38:00,
2013-05-24 05:43:00,61.6,60.7,29.68,WNW,282,0.0,0.0,97,0.00,OVC,,0.19,0.0,WeatherDisplay:10.37,2013-05-24 09:43:00,
2013-05-24 05:48:00,61.6,60.7,29.68,WNW,282,0.0,0.0,97,0.00,OVC,,0.19,0.0,WeatherDisplay:10.37,2013-05-24 09:48:00,
2013-05-24 05:53:00,61.6,60.7,29.68,WNW,282,0.0,0.0,97,0.00,OVC,,0.19,0.0,WeatherDisplay:10.37,2013-05-24 09:53:00,
2013-05-24 05:58:00,61.6,60.7,29.68,WNW,282,0.0,0.0,97,0.00,OVC,,0.19,0.0,WeatherDisplay:10.37,2013-05-24 09:58:00,
2013-05-24 06:03:00,61.6,60.7,29.68,WNW,282,0.0,0.0,97,0.00,OVC,,0.19,0.0,WeatherDisplay:10.37,2013-05-24 10:03:00,
2013-05-24 06:08:00,61.7,60.8,29.68,WNW,282,0.0,0.0,97,0.00,OVC,,0.19,5.7,WeatherDisplay:10.37,2013-05-24 10:08:00,
2013-05-24 06:13:00,61.7,60.8,29.69,WNW,282,0.0,0.0,97,0.00,OVC,,0.19,5.7,WeatherDisplay:10.37,2013-05-24 10:13:00,
2013-05-24 06:18:00,61.8,60.9,29.69,WNW,300,7.1,13.8,97,0.00,OVC,,0.19,0.0,WeatherDisplay:10.37,2013-05-24 10:18:00,
2013-05-24 06:23:00,61.1,60.0,29.70,WNW,295,8.3,11.5,96,0.00,OVC,,0.19,0.0,WeatherDisplay:10.37,2013-05-24 10:23:00,
2013-05-24 06:28:00,60.0,58.3,29.70,WNW,286,8.2,11.5,94,0.00,OVC,,0.19,0.0,WeatherDisplay:10.37,2013-05-24 10:28:00,
2013-05-24 06:33:00,59.1,57.1,29.71,WNW,289,3.7,4.6,93,0.00,OVC,,0.19,5.7,WeatherDisplay:10.37,2013-05-24 10:33:00,
2013-05-24 06:38:00,58.3,56.6,29.71,WNW,289,3.0,3.5,94,0.00,OVC,,0.19,5.7,WeatherDisplay:10.37,2013-05-24 10:38:00,
2013-05-24 06:43:00,57.6,55.9,29.72,WNW,295,6.2,8.1,94,0.00,OVC,,0.19,5.7,WeatherDisplay:10.37,2013-05-24 10:43:00,
2013-05-24 06:48:00,57.0,55.3,29.73,WNW,300,4.3,5.8,94,0.00,OVC,,0.19,5.7,WeatherDisplay:10.37,2013-05-24 10:48:00,
2013-05-24 06:53:00,56.4,54.7,29.73,WNW,292,5.0,6.9,94,0.00,OVC,,0.19,7.9,WeatherDisplay:10.37,2013-05-24 10:53:00,
2013-05-24 06:58:00,55.8,54.1,29.73,WNW,284,5.7,10.4,94,0.00,OVC,,0.19,12.4,WeatherDisplay:10.37,2013-05-24 10:58:00,
2013-05-24 07:03:00,55.1,53.1,29.74,WNW,298,5.1,6.0,93,0.00,OVC,,0.19,12.4,WeatherDisplay:10.37,2013-05-24 11:03:00,
2013-05-24 07:08:00,54.4,52.4,29.74,WNW,296,4.7,5.8,93,0.00,OVC,,0.19,15.8,WeatherDisplay:10.37,2013-05-24 11:08:00,
2013-05-24 07:13:00,54.0,52.3,29.75,WNW,297,4.4,8.1,94,0.00,OVC,,0.19,23.7,WeatherDisplay:10.37,2013-05-24 11:13:00,
2013-05-24 07:18:00,53.6,51.9,29.75,WNW,289,4.7,5.8,94,0.00,OVC,,0.19,21.5,WeatherDisplay:10.37,2013-05-24 11:18:00,
2013-05-24 07:23:00,53.3,51.6,29.75,WNW,290,4.2,5.0,94,0.00,OVC,,0.19,18.1,WeatherDisplay:10.37,2013-05-24 11:23:00,
2013-05-24 07:28:00,52.8,51.1,29.76,WNW,283,6.7,9.2,94,0.00,OVC,,0.19,20.3,WeatherDisplay:10.37,2013-05-24 11:28:00,
2013-05-24 07:33:00,52.6,50.9,29.76,WNW,295,2.9,4.6,94,0.00,OVC,,0.19,18.1,WeatherDisplay:10.37,2013-05-24 11:33:00,
2013-05-24 07:38:00,52.2,50.5,29.77,WNW,295,2.8,3.5,94,0.00,OVC,,0.19,13.6,WeatherDisplay:10.37,2013-05-24 11:38:00,
2013-05-24 07:43:00,52.0,50.3,29.77,WNW,292,5.3,6.9,94,0.00,OVC,,0.19,15.8,WeatherDisplay:10.37,2013-05-24 11:43:00,
2013-05-24 07:48:00,51.7,50.0,29.77,WNW,298,4.4,6.9,94,0.00,OVC,,0.19,15.8,WeatherDisplay:10.37,2013-05-24 11:48:00,
2013-05-24 07:53:00,51.4,49.7,29.78,WNW,298,4.0,4.6,94,0.00,OVC,,0.19,21.5,WeatherDisplay:10.37,2013-05-24 11:53:00,
2013-05-24 07:58:00,51.1,49.4,29.78,WNW,291,6.9,10.4,94,0.00,OVC,,0.19,13.6,WeatherDisplay:10.37,2013-05-24 11:58:00,
2013-05-24 08:03:00,50.9,49.2,29.78,WNW,298,4.6,5.8,94,0.00,OVC,,0.19,12.4,WeatherDisplay:10.37,2013-05-24 12:03:00,
2013-05-24 08:08:00,50.7,49.0,29.79,WNW,297,3.6,3.6,94,0.00,OVC,,0.19,21.5,WeatherDisplay:10.37,2013-05-24 12:08:00,
2013-05-24 08:13:00,50.6,48.9,29.80,WNW,300,4.3,5.8,94,0.00,OVC,,0.19,21.5,WeatherDisplay:10.37,2013-05-24 12:13:00,
2013-05-24 08:18:00,50.5,48.8,29.80,WNW,300,2.6,4.0,94,0.00,OVC,,0.19,21.5,WeatherDisplay:10.37,2013-05-24 12:18:00,
2013-05-24 08:23:00,50.4,48.7,29.80,WNW,300,2.2,3.5,94,0.00,OVC,,0.19,29.4,WeatherDisplay:10.37,2013-05-24 12:23:00,
2013-05-24 08:28:00,50.3,48.6,29.81,WNW,300,2.5,3.5,94,0.01,RA,,0.20,23.7,WeatherDisplay:10.37,2013-05-24 12:28:00,
2013-05-24 08:33:00,50.3,48.9,29.81,WNW,298,5.3,8.1,95,0.01,RA,,0.20,28.3,WeatherDisplay:10.37,2013-05-24 12:33:00,
2013-05-24 08:38:00,50.3,48.9,29.81,WNW,290,4.3,5.8,95,0.01,OVC,,0.20,36.2,WeatherDisplay:10.37,2013-05-24 12:38:00,
2013-05-24 08:43:00,50.1,48.7,29.81,WNW,292,2.8,3.5,95,0.02,RA,,0.21,36.2,WeatherDisplay:10.37,2013-05-24 12:43:00,
2013-05-24 08:48:00,50.0,48.6,29.80,WNW,292,2.9,3.5,95,0.02,RA,,0.21,55.4,WeatherDisplay:10.37,2013-05-24 12:48:00,
2013-05-24 08:53:00,50.0,48.6,29.81,WNW,292,1.7,2.3,95,0.02,OVC,,0.21,61.0,WeatherDisplay:10.37,2013-05-24 12:53:00,
2013-05-24 08:58:00,49.9,48.5,29.81,WNW,292,2.0,2.3,95,0.03,RA,,0.22,59.9,WeatherDisplay:10.37,2013-05-24 12:58:00,
2013-05-24 09:03:00,49.9,48.5,29.81,WNW,292,1.6,2.3,95,0.03,RA,,0.22,49.7,WeatherDisplay:10.37,2013-05-24 13:03:00,
2013-05-24 09:08:00,49.9,48.5,29.81,WNW,292,2.6,3.5,95,0.03,OVC,,0.22,61.0,WeatherDisplay:10.37,2013-05-24 13:08:00,
2013-05-24 09:13:00,49.9,48.5,29.82,WNW,292,2.1,2.3,95,0.03,OVC,,0.22,41.8,WeatherDisplay:10.37,2013-05-24 13:13:00,
2013-05-24 09:18:00,49.9,48.5,29.82,WNW,292,2.2,3.5,95,0.04,RA,,0.23,37.3,WeatherDisplay:10.37,2013-05-24 13:18:00,
2013-05-24 09:23:00,49.8,48.4,29.82,WNW,292,1.5,2.3,95,0.04,RA,,0.23,37.3,WeatherDisplay:10.37,2013-05-24 13:23:00,
2013-05-24 09:28:00,49.9,48.5,29.82,WNW,292,1.7,3.5,95,0.03,OVC,,0.23,45.2,WeatherDisplay:10.37,2013-05-24 13:28:00,
2013-05-24 09:33:00,49.9,48.5,29.82,WNW,292,0.1,2.3,95,0.03,OVC,,0.23,33.9,WeatherDisplay:10.37,2013-05-24 13:33:00,
2013-05-24 09:38:00,49.9,48.5,29.82,WNW,292,0.2,2.3,95,0.03,OVC,,0.23,83.6,WeatherDisplay:10.37,2013-05-24 13:38:00,
2013-05-24 09:43:00,50.1,49.0,29.82,WNW,292,1.7,3.5,96,0.02,OVC,,0.23,87.0,WeatherDisplay:10.37,2013-05-24 13:43:00,
2013-05-24 09:48:00,50.0,48.6,29.83,WNW,296,3.7,5.8,95,0.02,OVC,,0.23,89.3,WeatherDisplay:10.37,2013-05-24 13:48:00,
2013-05-24 09:53:00,50.0,48.6,29.83,WNW,296,4.9,6.0,95,0.02,OVC,,0.23,118.7,WeatherDisplay:10.37,2013-05-24 13:53:00,
2013-05-24 09:58:00,50.0,48.6,29.84,WNW,296,4.8,6.0,95,0.01,OVC,,0.23,107.3,WeatherDisplay:10.37,2013-05-24 13:58:00,
2013-05-24 10:03:00,50.0,48.6,29.84,WNW,298,6.4,9.2,95,0.01,OVC,,0.23,127.7,WeatherDisplay:10.37,2013-05-24 14:03:00,
2013-05-24 10:08:00,49.9,48.5,29.84,WNW,300,3.9,4.6,95,0.01,OVC,,0.23,71.2,WeatherDisplay:10.37,2013-05-24 14:08:00,
2013-05-24 10:13:00,49.7,48.3,29.84,WNW,299,3.7,5.8,95,0.01,OVC,,0.23,97.2,WeatherDisplay:10.37,2013-05-24 14:13:00,
2013-05-24 10:18:00,49.6,48.2,29.84,WNW,299,3.3,5.0,95,0.00,OVC,,0.23,99.4,WeatherDisplay:10.37,2013-05-24 14:18:00,
2013-05-24 10:23:00,49.6,48.2,29.84,WNW,302,2.9,4.6,95,0.00,OVC,,0.23,83.6,WeatherDisplay:10.37,2013-05-24 14:23:00,
2013-05-24 10:28:00,49.5,48.1,29.84,WNW,300,3.3,6.0,95,0.00,OVC,,0.23,117.5,WeatherDisplay:10.37,2013-05-24 14:28:00,
2013-05-24 10:33:00,49.4,48.0,29.85,WNW,294,3.3,5.8,95,0.00,OVC,,0.23,83.6,WeatherDisplay:10.37,2013-05-24 14:33:00,
2013-05-24 10:38:00,49.3,47.9,29.85,WNW,298,4.8,5.8,95,0.00,OVC,,0.23,59.9,WeatherDisplay:10.37,2013-05-24 14:38:00,
2013-05-24 10:43:00,49.1,47.7,29.86,WNW,298,3.7,4.6,95,0.00,OVC,,0.23,73.5,WeatherDisplay:10.37,2013-05-24 14:43:00,
2013-05-24 10:48:00,48.9,47.5,29.86,WNW,296,2.4,4.0,95,0.01,RA,,0.24,67.8,WeatherDisplay:10.37,2013-05-24 14:48:00,
2013-05-24 10:53:00,48.9,47.5,29.86,WNW,296,2.6,3.5,95,0.01,RA,,0.24,97.2,WeatherDisplay:10.37,2013-05-24 14:53:00,
2013-05-24 10:59:00,48.9,47.5,29.86,WNW,296,2.1,3.5,95,0.01,OVC,,0.24,133.3,WeatherDisplay:10.37,2013-05-24 14:59:00,
2013-05-24 11:04:00,49.1,48.0,29.86,WNW,296,3.2,4.6,96,0.01,OVC,,0.24,152.6,WeatherDisplay:10.37,2013-05-24 15:04:00,
2013-05-24 11:09:00,49.1,48.0,29.87,WNW,298,4.1,5.0,96,0.01,OVC,,0.24,141.3,WeatherDisplay:10.37,2013-05-24 15:09:00,
2013-05-24 11:14:00,49.2,48.1,29.86,WNW,298,2.9,3.5,96,0.01,OVC,,0.24,117.5,WeatherDisplay:10.37,2013-05-24 15:14:00,
2013-05-24 11:19:00,49.3,48.2,29.86,WNW,298,3.3,4.6,96,0.01,OVC,,0.24,160.5,WeatherDisplay:10.37,2013-05-24 15:19:00,
2013-05-24 11:24:00,49.2,48.1,29.86,WNW,300,4.3,6.0,96,0.01,OVC,,0.24,180.8,WeatherDisplay:10.37,2013-05-24 15:24:00,
2013-05-24 11:29:00,49.3,48.2,29.86,WNW,301,2.6,4.6,96,0.01,OVC,,0.24,202.3,WeatherDisplay:10.37,2013-05-24 15:29:00,
2013-05-24 11:34:00,49.5,48.4,29.86,WNW,296,4.1,5.8,96,0.01,BKN,,0.24,274.6,WeatherDisplay:10.37,2013-05-24 15:34:00,
2013-05-24 11:39:00,49.6,48.5,29.86,WNW,299,4.3,5.8,96,0.01,BKN,,0.24,293.8,WeatherDisplay:10.37,2013-05-24 15:39:00,
2013-05-24 11:44:00,49.8,48.7,29.86,WNW,301,3.5,4.6,96,0.01,BKN,,0.24,282.5,WeatherDisplay:10.37,2013-05-24 15:44:00,
2013-05-24 11:49:00,49.8,48.7,29.86,WNW,298,4.4,10.4,96,0.00,BKN,,0.24,248.6,WeatherDisplay:10.37,2013-05-24 15:49:00,
2013-05-24 11:54:00,49.9,48.8,29.86,NW,305,3.8,5.0,96,0.00,BKN,,0.24,230.5,WeatherDisplay:10.37,2013-05-24 15:54:00,
2013-05-24 11:59:00,49.9,48.8,29.87,NW,305,4.3,6.0,96,0.00,BKN,,0.24,254.3,WeatherDisplay:10.37,2013-05-24 15:59:00,
2013-05-24 12:04:00,49.8,48.4,29.87,WNW,302,4.8,5.8,95,0.00,OVC,,0.24,176.3,WeatherDisplay:10.37,2013-05-24 16:04:00,
2013-05-24 12:09:00,49.7,48.6,29.87,WNW,301,4.1,5.8,96,0.00,OVC,,0.24,172.9,WeatherDisplay:10.37,2013-05-24 16:09:00,
2013-05-24 12:14:00,49.7,48.6,29.88,WNW,300,3.5,5.0,96,0.00,OVC,,0.24,210.2,WeatherDisplay:10.37,2013-05-24 16:14:00,
2013-05-24 12:19:00,49.7,48.6,29.88,WNW,300,2.9,4.0,96,0.00,OVC,,0.24,214.7,WeatherDisplay:10.37,2013-05-24 16:19:00,
2013-05-24 12:24:00,49.6,48.2,29.87,WNW,287,5.9,8.1,95,0.00,OVC,,0.24,162.7,WeatherDisplay:10.37,2013-05-24 16:24:00,
2013-05-24 12:29:00,49.4,48.0,29.88,WNW,296,3.1,5.8,95,0.00,OVC,,0.24,238.4,WeatherDisplay:10.37,2013-05-24 16:29:00,
2013-05-24 12:34:00,49.3,47.9,29.88,WNW,299,4.3,5.8,95,0.00,OVC,,0.24,141.3,WeatherDisplay:10.37,2013-05-24 16:34:00,
2013-05-24 12:39:00,49.2,47.8,29.88,WNW,302,3.7,6.9,95,0.00,OVC,,0.24,198.9,WeatherDisplay:10.37,2013-05-24 16:39:00,
2013-05-24 12:44:00,49.1,47.7,29.88,WNW,302,3.1,4.6,95,0.01,RA,,0.25,172.9,WeatherDisplay:10.37,2013-05-24 16:44:00,
2013-05-24 12:49:00,49.2,47.8,29.88,WNW,302,2.2,4.6,95,0.01,RA,,0.25,202.3,WeatherDisplay:10.37,2013-05-24 16:49:00,
2013-05-24 12:54:00,49.3,48.2,29.88,WNW,302,3.2,3.5,96,0.01,OVC,,0.25,176.3,WeatherDisplay:10.37,2013-05-24 16:54:00,
2013-05-24 12:59:00,49.4,48.0,29.88,WNW,302,3.0,4.0,95,0.01,OVC,,0.25,254.3,WeatherDisplay:10.37,2013-05-24 16:59:00,
2013-05-24 13:04:00,49.5,48.4,29.88,WNW,303,3.8,5.0,96,0.01,BKN,,0.25,264.4,WeatherDisplay:10.37,2013-05-24 17:04:00,
2013-05-24 13:09:00,49.5,48.1,29.88,WNW,298,4.2,6.0,95,0.01,OVC,,0.25,256.5,WeatherDisplay:10.37,2013-05-24 17:09:00,
2013-05-24 13:14:00,49.6,48.5,29.88,WNW,298,3.3,6.0,96,0.01,BKN,,0.25,256.5,WeatherDisplay:10.37,2013-05-24 17:14:00,
2013-05-24 13:19:00,49.6,48.5,29.89,WNW,300,4.0,6.9,96,0.01,OVC,,0.25,151.4,WeatherDisplay:10.37,2013-05-24 17:19:00,
2013-05-24 13:24:00,49.6,48.5,29.89,WNW,298,3.5,4.6,96,0.01,OVC,,0.25,141.3,WeatherDisplay:10.37,2013-05-24 17:24:00,
2013-05-24 13:29:00,49.6,48.5,29.88,WNW,298,2.2,3.5,96,0.01,OVC,,0.25,209.1,WeatherDisplay:10.37,2013-05-24 17:29:00,
2013-05-24 13:34:00,49.7,48.6,29.89,WNW,298,3.4,3.5,96,0.01,OVC,,0.25,151.4,WeatherDisplay:10.37,2013-05-24 17:34:00,
2013-05-24 13:39:00,49.6,48.5,29.88,WNW,298,2.5,3.5,96,0.01,OVC,,0.25,127.7,WeatherDisplay:10.37,2013-05-24 17:39:00,
2013-05-24 13:44:00,49.5,48.4,29.89,WNW,300,2.9,3.5,96,0.00,OVC,,0.25,91.5,WeatherDisplay:10.37,2013-05-24 17:44:00,
2013-05-24 13:49:00,49.4,48.0,29.88,WNW,300,1.3,2.3,95,0.00,OVC,,0.25,78.0,WeatherDisplay:10.37,2013-05-24 17:49:00,
2013-05-24 13:54:00,49.4,48.0,29.88,WNW,300,1.8,2.3,95,0.00,OVC,,0.25,79.1,WeatherDisplay:10.37,2013-05-24 17:54:00,
2013-05-24 13:59:00,49.3,47.9,29.89,WNW,300,3.2,4.0,95,0.00,OVC,,0.25,63.3,WeatherDisplay:10.37,2013-05-24 17:59:00,
2013-05-24 14:04:00,49.2,48.4,29.88,WNW,300,1.5,3.5,97,0.00,OVC,,0.25,71.2,WeatherDisplay:10.37,2013-05-24 18:04:00,
2013-05-24 14:09:00,49.2,48.4,29.88,WNW,300,1.8,3.5,97,0.00,OVC,,0.25,63.3,WeatherDisplay:10.37,2013-05-24 18:09:00,
2013-05-24 14:14:00,49.1,48.3,29.89,WNW,300,2.5,3.5,97,0.00,OVC,,0.25,61.0,WeatherDisplay:10.37,2013-05-24 18:14:00,
2013-05-24 14:19:00,49.1,48.3,29.89,WNW,300,2.1,4.6,97,0.00,OVC,,0.25,110.7,WeatherDisplay:10.37,2013-05-24 18:19:00,
2013-05-24 14:24:00,49.1,48.3,29.89,WNW,300,2.4,3.5,97,0.00,OVC,,0.25,139.0,WeatherDisplay:10.37,2013-05-24 18:24:00,
2013-05-24 14:29:00,49.2,48.4,29.89,WNW,300,1.8,3.5,97,0.00,OVC,,0.25,109.6,WeatherDisplay:10.37,2013-05-24 18:29:00,
2013-05-24 14:34:00,49.2,48.4,29.90,WNW,300,1.4,2.3,97,0.01,RA,,0.26,97.2,WeatherDisplay:10.37,2013-05-24 18:34:00,
2013-05-24 14:39:00,49.1,48.3,29.90,WNW,300,0.9,2.3,97,0.02,RA,,0.27,113.0,WeatherDisplay:10.37,2013-05-24 18:39:00,
2013-05-24 14:44:00,49.0,48.2,29.90,WNW,300,1.6,3.5,97,0.03,RA,,0.28,101.7,WeatherDisplay:10.37,2013-05-24 18:44:00,
2013-05-24 14:49:00,48.9,47.8,29.90,WNW,300,0.7,2.3,96,0.03,RA,,0.28,109.6,WeatherDisplay:10.37,2013-05-24 18:49:00,
2013-05-24 14:54:00,48.8,47.7,29.90,WNW,300,0.4,2.3,96,0.03,OVC,,0.28,65.5,WeatherDisplay:10.37,2013-05-24 18:54:00,
2013-05-24 14:59:00,48.7,47.6,29.91,WNW,300,2.2,3.5,96,0.04,RA,,0.29,70.1,WeatherDisplay:10.37,2013-05-24 18:59:00,
2013-05-24 15:04:00,48.5,47.4,29.91,NW,318,1.6,3.5,96,0.04,RA,,0.29,65.5,WeatherDisplay:10.37,2013-05-24 19:04:00,
2013-05-24 15:09:00,48.3,47.2,29.91,NW,320,1.2,2.3,96,0.05,RA,,0.30,63.3,WeatherDisplay:10.37,2013-05-24 19:09:00,
2013-05-24 15:14:00,48.3,47.2,29.90,NW,320,0.1,2.3,96,0.05,RA,,0.30,75.7,WeatherDisplay:10.37,2013-05-24 19:14:00,
2013-05-24 15:19:00,48.3,47.2,29.90,NW,320,0.6,2.3,96,0.06,RA,,0.31,85.9,WeatherDisplay:10.37,2013-05-24 19:19:00,
2013-05-24 15:24:00,48.3,47.2,29.90,NW,320,1.7,3.5,96,0.08,RA,,0.33,93.8,WeatherDisplay:10.37,2013-05-24 19:24:00,
2013-05-24 15:29:00,48.2,47.1,29.91,NW,323,0.5,2.3,96,0.10,RA,,0.35,83.6,WeatherDisplay:10.37,2013-05-24 19:29:00,
2013-05-24 15:34:00,48.1,47.0,29.91,NW,323,1.6,3.5,96,0.10,RA,,0.37,85.9,WeatherDisplay:10.37,2013-05-24 19:34:00,
2013-05-24 15:39:00,48.0,46.9,29.91,NW,323,0.4,2.3,96,0.11,RA,,0.38,89.3,WeatherDisplay:10.37,2013-05-24 19:39:00,
2013-05-24 15:44:00,47.8,46.7,29.91,NNW,338,0.3,2.3,96,0.11,RA,,0.40,87.0,WeatherDisplay:10.37,2013-05-24 19:44:00,
2013-05-24 15:49:00,47.8,47.0,29.91,NNW,338,1.0,1.2,97,0.13,RA,,0.41,87.0,WeatherDisplay:10.37,2013-05-24 19:49:00,
2013-05-24 15:54:00,47.7,46.6,29.91,NNW,338,0.1,1.2,96,0.14,RA,,0.42,87.0,WeatherDisplay:10.37,2013-05-24 19:54:00,
2013-05-24 15:59:00,47.7,46.9,29.91,NNW,337,0.9,3.5,97,0.14,RA,,0.43,83.6,WeatherDisplay:10.37,2013-05-24 19:59:00,
2013-05-24 16:04:00,47.6,46.5,29.91,NNW,337,1.8,3.5,96,0.14,RA,,0.43,93.8,WeatherDisplay:10.37,2013-05-24 20:04:00,
2013-05-24 16:09:00,47.4,46.3,29.91,NNW,342,0.7,2.3,96,0.14,RA,,0.44,109.6,WeatherDisplay:10.37,2013-05-24 20:09:00,
2013-05-24 16:14:00,47.3,46.2,29.91,NNW,348,1.1,2.3,96,0.15,RA,,0.45,117.5,WeatherDisplay:10.37,2013-05-24 20:14:00,
2013-05-24 16:19:00,47.2,46.1,29.91,NE,53,2.2,3.5,96,0.16,RA,,0.47,128.8,WeatherDisplay:10.37,2013-05-24 20:19:00,
2013-05-24 16:24:00,47.2,46.4,29.91,NE,53,0.6,2.3,97,0.14,RA,,0.47,149.2,WeatherDisplay:10.37,2013-05-24 20:24:00,
2013-05-24 16:29:00,47.2,46.4,29.91,NE,52,0.9,2.3,97,0.13,RA,,0.48,146.9,WeatherDisplay:10.37,2013-05-24 20:29:00,
2013-05-24 16:34:00,47.4,46.6,29.91,NNE,23,1.7,2.3,97,0.13,RA,,0.49,188.7,WeatherDisplay:10.37,2013-05-24 20:34:00,
2013-05-24 16:39:00,47.4,46.6,29.91,ENE,71,1.1,3.5,97,0.11,RA,,0.50,193.2,WeatherDisplay:10.37,2013-05-24 20:39:00,
2013-05-24 16:44:00,47.5,46.7,29.91,NE,37,1.7,3.5,97,0.11,RA,,0.50,168.4,WeatherDisplay:10.37,2013-05-24 20:44:00,
2013-05-24 16:49:00,47.5,46.7,29.91,NE,34,0.2,3.5,97,0.09,RA,,0.50,139.0,WeatherDisplay:10.37,2013-05-24 20:49:00,
2013-05-24 16:54:00,47.6,46.8,29.91,SSW,211,1.8,3.5,97,0.08,OVC,,0.50,123.2,WeatherDisplay:10.37,2013-05-24 20:54:00,
2013-05-24 16:59:00,47.5,46.7,29.92,ENE,73,2.1,3.5,97,0.07,OVC,,0.50,85.9,WeatherDisplay:10.37,2013-05-24 20:59:00,
2013-05-24 17:04:00,47.6,46.5,29.92,ESE,112,1.0,5.8,96,0.07,OVC,,0.50,117.5,WeatherDisplay:10.37,2013-05-24 21:04:00,
2013-05-24 17:09:00,47.5,46.4,29.92,NW,321,2.2,4.0,96,0.06,BKN,,0.50,120.9,WeatherDisplay:10.37,2013-05-24 21:09:00,
2013-05-24 17:15:00,47.2,46.1,29.92,NNE,24,0.3,3.5,96,0.05,BKN,,0.50,109.6,WeatherDisplay:10.37,2013-05-24 21:15:00,
2013-05-24 17:20:00,47.0,45.9,29.92,NNW,332,1.9,3.5,96,0.03,BKN,,0.50,94.9,WeatherDisplay:10.37,2013-05-24 21:20:00,
2013-05-24 17:25:00,46.9,45.8,29.92,NNW,346,0.7,2.3,96,0.03,BKN,,0.50,97.2,WeatherDisplay:10.37,2013-05-24 21:25:00,
2013-05-24 17:30:00,46.8,45.7,29.93,North,360,1.1,3.5,96,0.02,BKN,,0.50,101.7,WeatherDisplay:10.37,2013-05-24 21:30:00,
2013-05-24 17:35:00,46.8,45.7,29.93,North,355,1.6,5.0,96,0.01,BKN,,0.50,125.4,WeatherDisplay:10.37,2013-05-24 21:35:00,
2013-05-24 17:40:00,46.7,45.6,29.92,NE,47,2.9,4.6,96,0.01,BKN,,0.50,125.4,WeatherDisplay:10.37,2013-05-24 21:40:00,
2013-05-24 17:45:00,46.7,45.6,29.93,East,84,0.9,4.0,96,0.00,BKN,,0.50,115.3,WeatherDisplay:10.37,2013-05-24 21:45:00,
2013-05-24 17:50:00,46.7,45.6,29.93,East,96,0.5,4.0,96,0.01,RA,,0.51,127.7,WeatherDisplay:10.37,2013-05-24 21:50:00,
2013-05-24 17:55:00,46.7,45.6,29.93,ENE,67,0.3,2.3,96,0.01,RA,,0.51,105.1,WeatherDisplay:10.37,2013-05-24 21:55:00,
2013-05-24 18:00:00,46.6,45.5,29.93,ENE,67,0.9,3.5,96,0.01,BKN,,0.51,81.4,WeatherDisplay:10.37,2013-05-24 22:00:00,
2013-05-24 18:05:00,46.5,45.4,29.93,ENE,67,1.2,1.2,96,0.01,BKN,,0.51,79.1,WeatherDisplay:10.37,2013-05-24 22:05:00,
2013-05-24 18:10:00,46.5,45.4,29.93,East,101,1.1,3.5,96,0.01,BKN,,0.51,61.0,WeatherDisplay:10.37,2013-05-24 22:10:00,
2013-05-24 18:15:00,46.4,45.3,29.93,ESE,105,2.6,5.0,96,0.01,OVC,,0.51,52.0,WeatherDisplay:10.37,2013-05-24 22:15:00,
2013-05-24 18:20:00,46.2,45.1,29.94,North,5,2.7,5.8,96,0.01,OVC,,0.51,39.5,WeatherDisplay:10.37,2013-05-24 22:20:00,
2013-05-24 18:25:00,46.1,45.0,29.93,NNE,30,3.5,5.8,96,0.01,OVC,,0.51,41.8,WeatherDisplay:10.37,2013-05-24 22:25:00,
2013-05-24 18:30:00,45.9,44.5,29.94,NE,49,3.6,6.0,95,0.02,RA,,0.52,45.2,WeatherDisplay:10.37,2013-05-24 22:30:00,
2013-05-24 18:35:00,45.7,44.6,29.93,NNW,338,4.3,6.0,96,0.02,RA,,0.52,52.0,WeatherDisplay:10.37,2013-05-24 22:35:00,
2013-05-24 18:40:00,45.5,44.2,29.94,NNW,346,2.9,10.4,95,0.03,RA,,0.53,70.1,WeatherDisplay:10.37,2013-05-24 22:40:00,
2013-05-24 18:45:00,45.2,43.9,29.94,ESE,102,3.6,10.4,95,0.03,RA,,0.53,79.1,WeatherDisplay:10.37,2013-05-24 22:45:00,
2013-05-24 18:50:00,45.1,43.8,29.94,ENE,74,1.7,4.6,95,0.03,RA,,0.54,70.1,WeatherDisplay:10.37,2013-05-24 22:50:00,
2013-05-24 18:55:00,45.0,43.7,29.94,ENE,61,4.7,5.8,95,0.04,RA,,0.55,53.1,WeatherDisplay:10.37,2013-05-24 22:55:00,
2013-05-24 19:00:00,44.9,43.6,29.95,NNW,328,3.4,10.4,95,0.04,RA,,0.55,45.2,WeatherDisplay:10.37,2013-05-24 23:00:00,
2013-05-24 19:05:00,44.8,43.5,29.95,North,360,2.9,4.6,95,0.04,BKN,,0.55,37.3,WeatherDisplay:10.37,2013-05-24 23:05:00,
2013-05-24 19:10:00,44.7,43.4,29.95,NNE,28,2.4,3.5,95,0.04,BKN,,0.55,29.4,WeatherDisplay:10.37,2013-05-24 23:10:00,
2013-05-24 19:15:00,44.6,43.3,29.95,NNW,347,2.0,5.0,95,0.04,BKN,,0.55,31.6,WeatherDisplay:10.37,2013-05-24 23:15:00,
2013-05-24 19:20:00,44.5,43.2,29.95,North,350,0.8,4.6,95,0.04,BKN,,0.55,31.6,WeatherDisplay:10.37,2013-05-24 23:20:00,
2013-05-24 19:25:00,44.5,43.4,29.96,NNW,343,2.3,6.9,96,0.04,BKN,,0.55,23.7,WeatherDisplay:10.37,2013-05-24 23:25:00,
2013-05-24 19:30:00,44.5,43.4,29.96,ENE,57,1.7,3.5,96,0.03,BKN,,0.55,13.6,WeatherDisplay:10.37,2013-05-24 23:30:00,
2013-05-24 19:35:00,44.4,43.3,29.96,NNW,345,2.5,3.5,96,0.03,BKN,,0.55,10.2,WeatherDisplay:10.37,2013-05-24 23:35:00,
2013-05-24 19:40:00,44.5,43.4,29.96,North,11,2.3,8.1,96,0.02,BKN,,0.55,7.9,WeatherDisplay:10.37,2013-05-24 23:40:00,
2013-05-24 19:45:00,44.5,43.4,29.96,East,96,3.0,3.5,96,0.02,BKN,,0.55,0.0,WeatherDisplay:10.37,2013-05-24 23:45:00,
2013-05-24 19:50:00,44.4,43.3,29.96,NW,324,2.5,3.5,96,0.02,RA,,0.56,0.0,WeatherDisplay:10.37,2013-05-24 23:50:00,
2013-05-24 19:55:00,44.3,43.2,29.97,NNW,339,1.6,3.0,96,0.01,RA,,0.56,0.0,WeatherDisplay:10.37,2013-05-24 23:55:00,
2013-05-24 20:00:00,44.3,43.2,29.97,NNW,346,2.9,3.5,96,0.01,BKN,,0.56,0.0,WeatherDisplay:10.37,2013-05-25 00:00:00,
2013-05-24 20:05:00,44.3,43.2,29.97,NE,49,1.1,2.3,96,0.01,BKN,,0.56,0.0,WeatherDisplay:10.37,2013-05-25 00:05:00,
2013-05-24 20:10:00,44.3,43.2,29.97,NW,309,1.5,4.0,96,0.01,BKN,,0.56,0.0,WeatherDisplay:10.37,2013-05-25 00:10:00,
2013-05-24 20:15:00,44.3,43.2,29.97,NNE,28,0.7,2.3,96,0.01,BKN,,0.56,0.0,WeatherDisplay:10.37,2013-05-25 00:15:00,
2013-05-24 20:20:00,44.3,43.2,29.98,NE,49,0.3,3.5,96,0.01,BKN,,0.56,0.0,WeatherDisplay:10.37,2013-05-25 00:20:00,
2013-05-24 20:25:00,44.3,43.2,29.98,NE,49,1.3,2.0,96,0.02,RA,,0.57,0.0,WeatherDisplay:10.37,2013-05-25 00:25:00,
2013-05-24 20:30:00,44.3,43.2,29.98,NE,48,0.1,2.3,96,0.02,RA,,0.57,0.0,WeatherDisplay:10.37,2013-05-25 00:30:00,
2013-05-24 20:35:00,44.4,43.3,29.98,NE,46,0.8,3.5,96,0.03,RA,,0.58,0.0,WeatherDisplay:10.37,2013-05-25 00:35:00,
2013-05-24 20:40:00,44.5,43.4,29.98,NE,42,1.3,3.5,96,0.04,RA,,0.59,0.0,WeatherDisplay:10.37,2013-05-25 00:40:00,
2013-05-24 20:45:00,44.6,43.8,29.98,NE,39,0.8,4.0,97,0.04,RA,,0.59,0.0,WeatherDisplay:10.37,2013-05-25 00:45:00,
2013-05-24 20:50:00,44.6,43.8,29.98,NW,317,3.6,5.8,97,0.04,RA,,0.60,0.0,WeatherDisplay:10.37,2013-05-25 00:50:00,
2013-05-24 20:55:00,44.6,43.8,29.98,NW,323,2.3,3.5,97,0.05,RA,,0.61,0.0,WeatherDisplay:10.37,2013-05-25 00:55:00,
2013-05-24 21:00:00,44.6,43.8,29.98,NW,310,2.7,5.8,97,0.06,RA,,0.62,0.0,WeatherDisplay:10.37,2013-05-25 01:00:00,
2013-05-24 21:05:00,44.6,43.8,29.98,NW,310,1.4,3.5,97,0.06,RA,,0.62,0.0,WeatherDisplay:10.37,2013-05-25 01:05:00,
2013-05-24 21:10:00,44.5,43.7,29.98,NW,310,1.5,3.5,97,0.07,RA,,0.63,0.0,WeatherDisplay:10.37,2013-05-25 01:10:00,
2013-05-24 21:15:00,44.5,43.7,29.98,SW,217,2.8,4.6,97,0.08,RA,,0.64,0.0,WeatherDisplay:10.37,2013-05-25 01:15:00,
2013-05-24 21:20:00,44.5,43.7,29.98,NNW,332,2.7,4.6,97,0.08,RA,,0.64,0.0,WeatherDisplay:10.37,2013-05-25 01:20:00,
2013-05-24 21:25:00,44.4,43.6,29.98,NW,304,3.9,6.9,97,0.08,RA,,0.65,0.0,WeatherDisplay:10.37,2013-05-25 01:25:00,
2013-05-24 21:30:00,44.3,43.5,29.99,NNW,346,1.2,3.5,97,0.08,RA,,0.65,0.0,WeatherDisplay:10.37,2013-05-25 01:30:00,
2013-05-24 21:35:00,44.1,43.3,29.99,NW,321,2.6,4.6,97,0.07,BKN,,0.65,0.0,WeatherDisplay:10.37,2013-05-25 01:35:00,
2013-05-24 21:40:00,44.0,42.9,29.99,North,11,2.0,3.5,96,0.07,RA,,0.66,0.0,WeatherDisplay:10.37,2013-05-25 01:40:00,
2013-05-24 21:45:00,44.0,43.2,29.99,ENE,73,0.5,2.3,97,0.07,RA,,0.66,0.0,WeatherDisplay:10.37,2013-05-25 01:45:00,
2013-05-24 21:50:00,44.0,42.9,30.00,ENE,64,0.5,2.3,96,0.06,BKN,,0.66,0.0,WeatherDisplay:10.37,2013-05-25 01:50:00,
2013-05-24 21:55:00,43.8,42.7,30.00,NNE,26,1.3,2.3,96,0.05,BKN,,0.66,0.0,WeatherDisplay:10.37,2013-05-25 01:55:00,
2013-05-24 22:00:00,43.8,42.7,30.00,NNE,26,0.8,3.5,96,0.05,BKN,,0.66,0.0,WeatherDisplay:10.37,2013-05-25 02:00:00,
2013-05-24 22:05:00,43.9,43.1,29.99,NNE,26,1.8,3.5,97,0.05,RA,,0.67,0.0,WeatherDisplay:10.37,2013-05-25 02:05:00,
2013-05-24 22:10:00,43.9,43.1,30.00,NW,309,3.3,3.5,97,0.04,RA,,0.67,0.0,WeatherDisplay:10.37,2013-05-25 02:10:00,
2013-05-24 22:15:00,43.9,43.1,30.00,NW,313,3.5,5.8,97,0.04,BKN,,0.67,0.0,WeatherDisplay:10.37,2013-05-25 02:15:00,
2013-05-24 22:20:00,43.8,43.0,29.99,NW,323,2.6,3.5,97,0.03,BKN,,0.68,0.0,WeatherDisplay:10.37,2013-05-25 02:20:00,
2013-05-24 22:25:00,43.6,42.5,29.99,NNW,335,3.2,4.6,96,0.03,RA,,0.68,0.0,WeatherDisplay:10.37,2013-05-25 02:25:00,
2013-05-24 22:30:00,43.6,42.8,29.99,NW,314,1.7,4.6,97,0.03,RA,,0.68,0.0,WeatherDisplay:10.37,2013-05-25 02:30:00,
2013-05-24 22:35:00,43.6,42.5,29.99,NW,311,2.7,5.0,96,0.04,RA,,0.69,0.0,WeatherDisplay:10.37,2013-05-25 02:35:00,
2013-05-24 22:40:00,43.6,42.8,30.00,NNW,328,3.5,6.9,97,0.03,RA,,0.69,0.0,WeatherDisplay:10.37,2013-05-25 02:40:00,
2013-05-24 22:45:00,43.5,42.4,30.00,NW,318,3.8,5.0,96,0.04,RA,,0.70,0.0,WeatherDisplay:10.37,2013-05-25 02:45:00,
2013-05-24 22:50:00,43.4,42.3,30.00,NW,304,2.7,4.6,96,0.04,RA,,0.70,0.0,WeatherDisplay:10.37,2013-05-25 02:50:00,
2013-05-24 22:55:00,43.4,42.3,30.00,NE,42,1.2,2.3,96,0.04,BKN,,0.70,0.0,WeatherDisplay:10.37,2013-05-25 02:55:00,
2013-05-24 23:00:00,43.3,42.2,30.00,NNE,32,1.2,4.0,96,0.05,RA,,0.71,0.0,WeatherDisplay:10.37,2013-05-25 03:00:00,
2013-05-24 23:05:00,43.3,42.2,30.00,NNW,344,1.9,4.6,96,0.04,RA,,0.71,0.0,WeatherDisplay:10.37,2013-05-25 03:05:00,
2013-05-24 23:10:00,43.2,42.4,30.00,NNW,331,2.3,3.5,97,0.04,BKN,,0.71,0.0,WeatherDisplay:10.37,2013-05-25 03:10:00,
2013-05-24 23:15:00,43.1,42.3,29.99,NNW,329,2.0,3.5,97,0.05,RA,,0.72,0.0,WeatherDisplay:10.37,2013-05-25 03:15:00,
2013-05-24 23:20:00,43.1,42.3,29.98,NW,309,3.0,3.5,97,0.06,RA,,0.73,0.0,WeatherDisplay:10.37,2013-05-25 03:20:00,
2013-05-24 23:25:00,43.1,42.3,29.98,NNW,340,1.4,3.5,97,0.05,RA,,0.73,0.0,WeatherDisplay:10.37,2013-05-25 03:25:00,
2013-05-24 23:30:00,43.0,42.2,29.98,NNW,341,2.7,3.5,97,0.06,RA,,0.74,0.0,WeatherDisplay:10.37,2013-05-25 03:30:00,
2013-05-24 23:35:00,43.0,42.2,29.98,NNW,327,3.9,5.8,97,0.05,RA,,0.74,0.0,WeatherDisplay:10.37,2013-05-25 03:35:00,
2013-05-24 23:40:00,42.9,42.1,29.98,WNW,284,2.9,6.0,97,0.05,BKN,,0.74,0.0,WeatherDisplay:10.37,2013-05-25 03:40:00,
2013-05-24 23:45:00,42.8,42.0,29.97,NNW,327,2.4,3.5,97,0.04,BKN,,0.74,0.0,WeatherDisplay:10.37,2013-05-25 03:45:00,
2013-05-24 23:50:00,42.8,42.0,29.98,NW,315,3.4,5.0,97,0.04,BKN,,0.75,0.0,WeatherDisplay:10.37,2013-05-25 03:50:00,
2013-05-24 23:55:00,42.7,41.9,29.98,NNW,338,2.0,4.6,97,0.05,RA,,0.75,0.0,WeatherDisplay:10.37,2013-05-25 03:55:00,